This is the latest recevied weather packets stored in our database for station/object K8RRT. If no packets are shown the sender has not sent any weather packets the latest 10 day(s).
| Time | Temp. | Humidity | Pressure | Rain* | Wind** | Luminosity | Snow |
|---|---|---|---|---|---|---|---|
| 1777659010 | 18.33° C | 50% | 1007.7 hPa | 0 mm | - | 238 W/m² | - |
| 1777658708 | 17.78° C | 50% | 1007.9 hPa | 0 mm | - | 937 W/m² | - |
| 1777658403 | 18.33° C | 47% | 1007.7 hPa | 0 mm | - | 329 W/m² | - |
| 1777658101 | 18.33° C | 47% | 1007.8 hPa | 0 mm | - | 288 W/m² | - |
| 1777657797 | 18.33° C | 47% | 1007.6 hPa | 0 mm | - | 726 W/m² | - |
| 1777657495 | 17.78° C | 48% | 1007.8 hPa | 0 mm | - | 953 W/m² | - |
| 1777657192 | 17.22° C | 47% | 1008.2 hPa | 0 mm | - | 450 W/m² | - |
| 1777656890 | 17.78° C | 46% | 1008.1 hPa | 0 mm | - | 331 W/m² | - |
| 1777656585 | 17.22° C | 46% | 1008 hPa | 0 mm | - | 389 W/m² | - |
| 1777656281 | 17.78° C | 48% | 1008 hPa | 0 mm | - | 578 W/m² | - |
| 1777655977 | 17.78° C | 46% | 1008 hPa | 0 mm | - | 551 W/m² | - |
| 1777655673 | 18.33° C | 44% | 1007.9 hPa | 0 mm | - | 914 W/m² | - |
| 1777655370 | 18.33° C | 48% | 1008 hPa | 0 mm | - | 839 W/m² | - |
| 1777655067 | 17.78° C | 46% | 1008 hPa | 0 mm | - | 820 W/m² | - |
| 1777654765 | 17.22° C | 49% | 1008.2 hPa | 0 mm | - | 898 W/m² | - |
| 1777654462 | 17.22° C | 46% | 1008.3 hPa | 0 mm | - | 501 W/m² | - |
| 1777654160 | 17.22° C | 49% | 1008.1 hPa | 0 mm | - | 652 W/m² | - |
| 1777653857 | 17.22° C | 53% | 1008.1 hPa | 0 mm | - | 734 W/m² | - |
| 1777653554 | 16.67° C | 53% | 1008.2 hPa | 0 mm | - | 766 W/m² | - |
| 1777653250 | 16.67° C | 53% | 1008.3 hPa | 0 mm | - | 787 W/m² | - |
| 1777652946 | 16.67° C | 50% | 1008.5 hPa | 0 mm | - | 530 W/m² | - |
| 1777652643 | 16.67° C | 53% | 1008.5 hPa | 0 mm | - | 406 W/m² | - |
| 1777652340 | 16.67° C | 52% | 1008.6 hPa | 0 mm | - | 843 W/m² | - |
| 1777652037 | 16.67° C | 50% | 1008.7 hPa | 0 mm | - | 903 W/m² | - |
| 1777651734 | 16.11° C | 50% | 1008.8 hPa | 0 mm | - | 580 W/m² | - |
* Rain latest hour (hover to see other rain measurements)
** Current wind speed in m/s (hover to see current wind gust speed)